Location: Nitra
(48.3167°N, 18.0833°E)
Time: 17:23:47
(UTC+02:00)

ISS - Visible Passes

Search period start: 25 September 2022 00:00
Search period end: 05 October 2022 00:00
Orbit: 414 x 417 km, 51.6° (Epoch: 25 September)

Date Brightness Start Highest point End Pass type
(mag) Time Alt. Az. Time Alt. Az. Time Alt. Az.
25 Sep -3.4 20:34:56 10° WNW 20:38:15 54° NNE 20:38:20 53° NNE visible
26 Sep -3.1 19:46:15 10° WNW 19:49:31 47° N 19:51:30 21° ENE visible
26 Sep -1.3 21:23:02 10° WNW 21:24:22 22° WNW 21:24:22 22° WNW visible
27 Sep -3.7 20:34:21 10° WNW 20:37:32 76° NW 20:37:32 76° NW visible
28 Sep -3.6 19:45:40 10° WNW 19:49:01 63° NNE 19:50:42 26° E visible
28 Sep -1.0 21:22:32 10° WNW 21:23:35 17° W 21:23:35 17° W visible
29 Sep -3.3 18:56:57 10° WNW 19:00:15 52° N 19:03:33 10° E visible
29 Sep -3.2 20:33:44 10° WNW 20:36:46 51° SW 20:36:46 51° SW visible
30 Sep -3.7 19:44:58 10° WNW 19:48:20 77° SSW 19:50:00 27° ESE visible
30 Sep -0.6 21:22:28 10° W 21:22:53 12° WSW 21:22:53 12° WSW visible
01 Oct -3.7 18:56:14 10° WNW 18:59:36 78° NNE 19:02:58 10° ESE visible
01 Oct -2.0 20:33:17 10° W 20:36:05 25° SW 20:36:09 25° SW visible
02 Oct -2.6 19:44:19 10° WNW 19:47:28 37° SSW 19:49:30 18° SSE visible
03 Oct -3.2 18:55:27 10° WNW 18:58:45 57° SSW 19:02:03 10° SE visible
03 Oct -0.9 20:33:52 10° WSW 20:34:53 11° SW 20:35:49 10° SSW visible
04 Oct -1.2 19:44:01 10° W 19:46:20 17° SW 19:48:38 10° S visible
